Date,TemperatureHighF,TemperatureAvgF,TemperatureLowF,DewpointHighF,DewpointAvgF,DewpointLowF,HumidityHigh,HumidityAvg,HumidityLow,PressureMaxIn,PressureMinIn,WindSpeedMaxMPH,WindSpeedAvgMPH,GustSpeedMaxMPH,PrecipitationSumIn
2013-3-1,38,35,31,27,25,20,72,65,57,29.72,29.58,15,2,15,0.00
2013-3-2,37,32,29,24,20,17,77,63,50,29.71,29.63,12,3,13,0.00
2013-3-3,52,33,24,24,17,12,72,54,32,29.77,29.63,19,3,19,0.00
2013-3-4,61,35,20,21,13,9,65,44,17,29.85,29.77,13,2,14,0.00
2013-3-5,51,38,29,32,24,14,90,57,37,29.87,29.54,11,3,11,0.00
2013-3-6,38,34,30,33,30,27,93,84,67,29.87,29.46,14,3,14,0.35
2013-3-7,46,38,35,30,27,25,74,65,47,30.02,29.85,18,4,18,0.04
2013-3-8,50,37,32,29,25,21,77,63,44,30.13,29.98,18,4,18,0.00
2013-3-9,66,43,26,35,26,21,84,55,21,30.17,30.07,7,2,7,0.00
2013-3-10,62,46,30,35,28,23,76,53,31,30.10,29.98,17,6,17,0.00
2013-3-11,56,50,43,49,35,24,86,57,34,30.00,29.67,15,8,15,0.04
2013-3-12,68,52,37,51,42,26,93,71,36,29.82,29.56,20,6,20,0.70
2013-3-13,53,38,30,31,23,16,79,58,30,29.90,29.73,28,7,28,0.00
2013-3-14,54,37,26,24,17,13,65,46,27,29.97,29.88,24,6,24,0.00
2013-3-15,66,44,27,38,25,14,65,49,36,29.92,29.62,20,6,20,0.00
2013-3-16,63,50,39,54,42,30,89,74,53,29.70,29.44,17,5,17,0.10
2013-3-17,39,35,31,36,32,28,93,91,87,30.03,29.70,6,2,6,0.14
2013-3-18,33,32,30,31,29,28,93,91,87,30.05,29.68,0,0,0,0.05
2013-3-19,58,42,32,44,26,7,94,60,21,29.78,29.57,32,8,32,0.37
2013-3-20,53,42,32,24,15,9,55,34,23,29.82,29.58,27,9,27,0.00
2013-3-21,38,31,23,26,12,9,69,46,36,29.73,29.59,20,7,20,0.00
2013-3-22,54,38,23,22,17,9,61,43,27,29.81,29.69,16,5,16,0.00
2013-3-23,57,40,26,26,19,14,62,43,24,29.85,29.71,12,2,12,0.00
2013-3-24,39,33,30,28,24,17,90,70,43,29.79,29.43,6,1,6,0.00
2013-3-25,38,33,29,34,29,24,91,85,67,29.54,29.33,6,1,6,0.46
2013-3-26,48,37,29,34,27,23,83,67,44,29.86,29.54,20,4,20,0.05
2013-3-27,51,40,30,30,26,22,77,59,41,29.97,29.86,19,6,19,0.00
2013-3-28,46,40,35,29,26,23,64,57,48,30.06,29.93,19,5,22,0.00
2013-3-29,57,45,34,34,27,23,73,51,31,30.08,29.96,15,3,15,0.00
2013-3-30,62,46,29,34,28,23,83,53,29,30.04,29.89,11,3,11,0.00
2013-3-31,54,46,40,49,39,28,91,76,55,29.89,29.59,10,3,10,0.13